Yakima, WA

10:36 PM PST on February 08, 2016 (GMT -0800)
Yakima Air Term-McAllister

Weather History for KYKM - December, 2013

Change the Weather History Date:

Friday, December 20, 2013

  Actual Average Record
Temperature  
Mean Temperature 29 °F 28 °F  
Max Temperature 37 °F 34 °F 61 °F (1994)
Min Temperature 20 °F 21 °F -7 °F (1984)
Degree Days  
Heating Degree Days 36 37  
Month to date heating degree days 776 717  
Since 1 July heating degree days 2192 2250  
Cooling Degree Days 0 0  
Month to date cooling degree days 0 0  
Year to date cooling degree days 970 472  
Moisture  
Dew Point 21 °F    
Average Humidity 73    
Maximum Humidity 92    
Minimum Humidity 54    
Precipitation  
Precipitation T in 0.06 in 0.45 in (1955)
Month to date precipitation 0.32 0.99  
Year to date precipitation 5.49 7.71  
Snow  
Snow 0.00 in 0.30 in 3.50 in (1970)
Month to date snowfall T 6.0  
Year to date snowfall 1.1 18.2  
Since 1 July snowfall T 9.6  
Snow Depth 0.00 in    
Sea Level Pressure  
Sea Level Pressure 29.86 in    
Wind  
Wind Speed 2 mph (WNW)    
Max Wind Speed 10 mph    
Max Gust Speed 15 mph    
Visibility 10 miles    
Events Rain    
T = Trace of Precipitation, MM = Missing Value Source: NWS Daily Summary

Daily Weather History Graph

Daily Weather History Graph

Search for Another Location

Airport or City:

Trip Planner

Search our weather history database for the weather conditions in past years. The results will help you decide how hot, cold, wet, or windy it might be!

Date:

Astronomy

Dec. 20, 2013 Rise Set
Actual Time 7:43 AM PST 4:17 PM PST
Civil Twilight 7:07 AM PST 4:52 PM PST
Nautical Twilight 6:29 AM PST 5:30 PM PST
Astronomical Twilight 5:52 AM PST 6:07 PM PST
Moon 7:53 PM PST (12/20) 9:30 AM PST (12/20)
Length of Visible Light 9h 44m
Length of Day
8h 34m
Waning Gibbous, 90% of the Moon is Illuminated
Dec 20
Waning Gibbous
Dec 25
Last Quarter
Jan 1
New
Jan 7
First Quarter
Jan 15
Full

Hourly Weather History & Observations

Time (PST) Temp. Windchill Dew Point Humidity Pressure Visibility Wind Dir Wind Speed Gust Speed Precip Events Conditions
12:53 AM 25.0 °F - 18.0 °F 75% 30.13 in 10.0 mi Calm Calm - N/A   Clear
1:53 AM 25.0 °F - 19.0 °F 78% 30.10 in 10.0 mi Calm Calm - N/A   Clear
2:53 AM 25.0 °F - 19.0 °F 78% 30.09 in 10.0 mi Calm Calm - N/A   Overcast
3:53 AM 24.1 °F - 18.0 °F 77% 30.08 in 10.0 mi Calm Calm - N/A   Clear
4:53 AM 21.0 °F 16.2 °F 17.1 °F 85% 30.05 in 9.0 mi WNW 3.5 mph - N/A   Clear
5:53 AM 24.1 °F 19.7 °F 19.0 °F 81% 30.05 in 10.0 mi West 3.5 mph - N/A   Overcast
6:53 AM 26.1 °F - 19.9 °F 78% 30.02 in 10.0 mi Calm Calm - N/A   Overcast
7:53 AM 26.1 °F - 19.9 °F 78% 30.01 in 10.0 mi Calm Calm - N/A   Overcast
8:53 AM 28.0 °F - 19.9 °F 72% 30.00 in 10.0 mi Calm Calm - N/A   Scattered Clouds
9:53 AM 30.0 °F - 19.9 °F 66% 29.96 in 10.0 mi Calm Calm - N/A   Mostly Cloudy
10:53 AM 32.0 °F - 18.0 °F 56% 29.91 in 10.0 mi Calm Calm - N/A   Mostly Cloudy
11:33 AM 34.0 °F - 19.9 °F 56% 29.81 in 10.0 mi Calm Calm - N/A   Mostly Cloudy
11:45 AM 34.0 °F - 21.0 °F 59% 29.80 in 10.0 mi Calm Calm - N/A   Scattered Clouds
11:53 AM 34.0 °F - 21.0 °F 59% 29.84 in 10.0 mi Calm Calm - N/A   Partly Cloudy
12:53 PM 35.1 °F - 24.1 °F 64% 29.77 in 10.0 mi Calm Calm - N/A   Partly Cloudy
1:53 PM 36.0 °F - 24.1 °F 62% 29.73 in 10.0 mi Calm Calm - 0.00 in Rain Light Rain
2:53 PM 36.0 °F - 25.0 °F 64% 29.69 in 10.0 mi Calm Calm - 0.00 in   Scattered Clouds
3:53 PM 34.0 °F 31.0 °F 24.1 °F 67% 29.66 in 10.0 mi ESE 3.5 mph - N/A   Clear
4:53 PM 30.0 °F 24.1 °F 24.1 °F 79% 29.64 in 10.0 mi ENE 5.8 mph - N/A   Clear
5:53 PM 26.1 °F 20.5 °F 21.9 °F 84% 29.65 in 10.0 mi West 4.6 mph - N/A   Clear
6:53 PM 25.0 °F 20.7 °F 21.0 °F 85% 29.66 in 10.0 mi Variable 3.5 mph - N/A   Clear
7:53 PM 24.1 °F 19.7 °F 19.9 °F 84% 29.68 in 10.0 mi SSW 3.5 mph - N/A   Clear
8:53 PM 24.1 °F 19.7 °F 19.9 °F 84% 29.71 in 10.0 mi WSW 3.5 mph - N/A   Clear
9:53 PM 21.9 °F 15.7 °F 19.0 °F 89% 29.73 in 10.0 mi Variable 4.6 mph - N/A   Clear
10:53 PM 28.0 °F 20.0 °F 21.9 °F 78% 29.76 in 10.0 mi NNE 8.1 mph - N/A   Clear
11:53 PM 27.0 °F 20.5 °F 21.9 °F 81% 29.78 in 10.0 mi NE 5.8 mph - N/A   Clear